EW4022 Weather Reports


Display with metric or nautical units.
time (UTC)temp
F
wind
direction
speed
MPH
gust
MPH
rain 1hr
in
rain 24hr
in
rain mn
in
humidity
%
barometer
mb
20260831231533 86 249 0.0 3.0 0.00 0.00 0.00 66 979.5
20260831231033 86 249 0.0 3.0 0.00 0.00 0.00 66 979.4
20260831230532 87 249 0.0 3.0 0.00 0.00 0.00 65 979.4
20260831230032 87 249 0.0 4.0 0.00 0.00 0.00 64 979.4
20260831225531 87 249 1.0 4.0 0.00 0.00 0.00 64 979.4
20260831225033 87 239 0.0 4.0 0.00 0.00 0.00 63 979.3
20260831224532 87 238 0.0 4.0 0.00 0.00 0.00 64 979.3
20260831224032 87 237 1.0 7.0 0.00 0.00 0.00 63 979.3
20260831223532 87 237 2.0 7.0 0.00 0.00 0.00 62 979.3
20260831223031 87 225 2.0 8.0 0.00 0.00 0.00 62 979.3
20260831222533 87 242 3.0 9.0 0.00 0.00 0.00 62 979.3
20260831222033 88 27 3.0 9.0 0.00 0.00 0.00 62 979.3
20260831221531 88 234 1.0 7.0 0.00 0.00 0.00 62 979.3
20260831221030 88 205 3.0 7.0 0.00 0.00 0.00 61 979.4
20260831220533 88 243 3.0 8.0 0.00 0.00 0.00 62 979.3
20260831220030 88 215 1.0 12.0 0.00 0.00 0.00 61 979.3
20260831215530 88 243 3.0 12.0 0.00 0.00 0.00 60 979.3
20260831215031 88 227 2.0 8.0 0.00 0.00 0.00 60 979.4
20260831214530 89 200 2.0 10.0 0.00 0.00 0.00 57 979.4
20260831214029 91 238 3.0 10.0 0.00 0.00 0.00 55 979.3
20260831213530 91 264 1.0 6.0 0.00 0.00 0.00 53 979.2
20260831213029 91 49 0.0 6.0 0.00 0.00 0.00 55 979.2
20260831212529 91 257 0.0 4.0 0.00 0.00 0.00 54 979.1
20260831212029 90 257 0.0 4.0 0.00 0.00 0.00 56 979.1
20260831211528 89 257 0.0 5.0 0.00 0.00 0.00 55 979.2
20260831211028 90 270 0.0 2.0 0.00 0.00 0.00 53 979.1
20260831210527 90 270 0.0 2.0 0.00 0.00 0.00 52 979.1
20260831210027 91 270 0.0 2.0 0.00 0.00 0.00 51 979.1
20260831205527 92 270 0.0 2.0 0.00 0.00 0.00 50 979.1
20260831205029 93 270 0.0 2.0 0.00 0.00 0.00 48 979.2
20260831204526 94 270 0.0 3.0 0.00 0.00 0.00 46 979.1
20260831204025 93 270 1.0 5.0 0.00 0.00 0.00 47 979.2
20260831203524 93 270 2.0 5.0 0.00 0.00 0.00 46 979.3
20260831203024 94 27 1.0 5.0 0.00 0.00 0.00 46 979.3
20260831202524 94 244 1.0 5.0 0.00 0.00 0.00 46 979.4
20260831202024 94 267 0.0 4.0 0.00 0.00 0.00 45 979.3
20260831201523 94 265 1.0 4.0 0.00 0.00 0.00 45 979.3
20260831201022 94 265 1.0 4.0 0.00 0.00 0.00 43 979.4
20260831200521 94 18 0.0 3.0 0.00 0.00 0.00 45 979.4
20260831200020 94 19 0.0 4.0 0.00 0.00 0.00 44 979.5
20260831195521 94 21 1.0 4.0 0.00 0.00 0.00 43 979.6
20260831195021 94 201 1.0 4.0 0.00 0.00 0.00 43 979.6
20260831194519 94 202 1.0 6.0 0.00 0.00 0.00 42 979.6
20260831194024 94 212 2.0 6.0 0.00 0.00 0.00 44 979.6
20260831193518 95 226 1.0 7.0 0.00 0.00 0.00 43 979.6
20260831193016 95 225 1.0 7.0 0.00 0.00 0.00 44 979.6
20260831192516 94 265 1.0 6.0 0.00 0.00 0.00 43 979.7
20260831192015 94 267 1.0 6.0 0.00 0.00 0.00 45 979.7
20260831191533 94 167 0.0 8.0 0.00 0.00 0.00 49 979.7
20260831191015 94 180 2.0 8.0 0.00 0.00 0.00 45 979.8
20260831190515 94 202 3.0 6.0 0.00 0.00 0.00 44 979.8
20260831190018 94 223 2.0 6.0 0.00 0.00 0.00 44 979.8
20260831185515 93 250 1.0 5.0 0.00 0.00 0.00 46 979.8
20260831185015 93 45 1.0 5.0 0.00 0.00 0.00 47 979.9
20260831184513 94 135 2.0 5.0 0.00 0.00 0.00 44 979.9
20260831184016 94 239 1.0 5.0 0.00 0.00 0.00 48 979.9
20260831183514 94 213 2.0 5.0 0.00 0.00 0.00 48 980.0
20260831183012 94 242 2.0 7.0 0.00 0.00 0.00 46 980.0
20260831182518 94 258 0.0 4.0 0.00 0.00 0.00 46 980.1
20260831182011 94 257 2.0 4.0 0.00 0.00 0.00 44 980.1
20260831181510 94 238 1.0 4.0 0.00 0.00 0.00 45 980.2
20260831181009 93 238 1.0 4.0 0.00 0.00 0.00 42 980.3
20260831180509 94 238 1.0 7.0 0.00 0.00 0.00 43 980.3
20260831180009 94 238 2.0 8.0 0.00 0.00 0.00 44 980.3
20260831175508 94 201 1.0 8.0 0.00 0.00 0.00 45 980.3
20260831175007 93 239 1.0 6.0 0.00 0.00 0.00 51 980.4
20260831174506 92 64 3.0 6.0 0.00 0.00 0.00 48 980.4
20260831174006 92 270 1.0 4.0 0.00 0.00 0.00 49 980.4
20260831173505 92 360 2.0 5.0 0.00 0.00 0.00 48 980.5
20260831173004 91 225 1.0 6.0 0.00 0.00 0.00 50 980.5
20260831172505 90 261 1.0 6.0 0.00 0.00 0.00 51 980.6
20260831172009 92 209 1.0 9.0 0.00 0.00 0.00 50 980.6
20260831171510 92 222 3.0 8.0 0.00 0.00 0.00 49 980.6
20260831171003 92 16 2.0 6.0 0.00 0.00 0.00 49 980.7
20260831170502 90 42 1.0 5.0 0.00 0.00 0.00 51 980.7
20260831170003 88 51 1.0 5.0 0.00 0.00 0.00 57 980.8
20260831165503 89 229 0.0 3.0 0.00 0.00 0.00 59 980.8
20260831165003 90 229 0.0 6.0 0.00 0.00 0.00 55 980.8
20260831164502 91 228 1.0 6.0 0.00 0.00 0.00 54 980.9
20260831164002 91 254 0.0 7.0 0.00 0.00 0.00 53 980.9
20260831163501 92 245 2.0 8.0 0.00 0.00 0.00 53 981.1
20260831163105 91 237 3.0 8.0 0.00 0.00 0.00 55 981.2
20260831162600 90 227 1.0 4.0 0.00 0.00 0.00 56 981.1
20260831162100 91 220 1.0 4.0 0.00 0.00 0.00 54 981.2
20260831161600 91 219 0.0 5.0 0.00 0.00 0.00 54 981.2
20260831161100 90 220 2.0 6.0 0.00 0.00 0.00 57 981.3
20260831160558 90 217 2.0 7.0 0.00 0.00 0.00 57 981.3
20260831155558 91 261 0.0 3.0 0.00 0.00 0.00 59 981.4
20260831155057 90 261 0.0 5.0 0.00 0.00 0.00 60 981.3
20260831154555 90 5 1.0 5.0 0.00 0.00 0.00 59 981.3
20260831154058 90 271 1.0 4.0 0.00 0.00 0.00 60 981.2
20260831153553 89 230 1.0 4.0 0.00 0.00 0.00 61 981.2
20260831153052 89 227 1.0 6.0 0.00 0.00 0.00 62 981.3
20260831152551 89 227 1.0 6.0 0.00 0.00 0.00 64 981.3
20260831152053 88 360 1.0 4.0 0.00 0.00 0.00 64 981.3
20260831151550 88 360 2.0 5.0 0.00 0.00 0.00 65 981.3
20260831151049 88 38 1.0 5.0 0.00 0.00 0.00 67 981.3
20260831150547 87 37 0.0 6.0 0.00 0.00 0.00 68 981.4
20260831150051 87 38 1.0 6.0 0.00 0.00 0.00 67 981.4
20260831145545 87 15 3.0 6.0 0.00 0.00 0.00 68 981.3
20260831145044 86 360 1.0 4.0 0.00 0.00 0.00 70 981.4
20260831144548 85 360 1.0 4.0 0.00 0.00 0.00 69 981.3
20260831144042 85 360 1.0 3.0 0.00 0.00 0.00 70 981.3
20260831143541 85 360 0.0 6.0 0.00 0.00 0.00 71 981.3
20260831143040 84 271 1.0 6.0 0.00 0.00 0.00 73 981.4
20260831142539 84 245 1.0 5.0 0.00 0.00 0.00 73 981.4
20260831142037 83 243 2.0 5.0 0.00 0.00 0.00 72 981.3
20260831141537 83 11 0.0 4.0 0.00 0.00 0.00 74 981.4
20260831141036 83 13 1.0 6.0 0.00 0.00 0.00 74 981.4
20260831140534 82 13 1.0 6.0 0.00 0.00 0.00 75 981.3
20260831140036 82 274 0.0 4.0 0.00 0.00 0.00 76 981.4
20260831135532 82 275 1.0 4.0 0.00 0.00 0.00 76 981.4
20260831135031 81 275 1.0 4.0 0.00 0.00 0.00 77 981.5
20260831134530 81 274 1.0 5.0 0.00 0.00 0.00 78 981.5
20260831134028 80 24 2.0 5.0 0.00 0.00 0.00 78 981.5
20260831133527 80 272 1.0 4.0 0.00 0.00 0.00 80 981.6
20260831133034 79 270 0.0 4.0 0.00 0.00 0.00 80 981.6
20260831132529 79 271 1.0 8.0 0.00 0.00 0.00 80 981.7
20260831132024 79 271 2.0 8.0 0.00 0.00 0.00 81 981.7
20260831131523 78 19 2.0 8.0 0.00 0.00 0.00 82 981.8
20260831131022 78 5 2.0 3.0 0.00 0.00 0.00 84 981.7
20260831130520 77 9 1.0 4.0 0.00 0.00 0.00 84 981.6
20260831130019 77 10 1.0 5.0 0.00 0.00 0.00 85 981.7
20260831125521 76 17 1.0 5.0 0.00 0.00 0.00 87 981.7
20260831125018 76 23 1.0 5.0 0.00 0.00 0.00 88 981.7
20260831124535 75 19 1.0 5.0 0.00 0.00 0.00 89 981.7
20260831124017 75 19 1.0 5.0 0.00 0.00 0.00 90 981.7
20260831123513 74 271 1.0 4.0 0.00 0.00 0.00 91 981.7
20260831123011 74 271 1.0 4.0 0.00 0.00 0.00 92 981.7
20260831122512 73 17 0.0 3.0 0.00 0.00 0.00 92 981.7
20260831122008 73 17 1.0 3.0 0.00 0.00 0.00 93 981.7
20260831121507 72 17 0.0 6.0 0.00 0.00 0.00 93 981.6
20260831121006 72 17 2.0 6.0 0.00 0.00 0.00 94 981.5
20260831120505 71 273 1.0 4.0 0.00 0.00 0.00 94 981.4
20260831120007 71 273 0.0 4.0 0.00 0.00 0.00 94 981.5
20260831115503 71 273 1.0 3.0 0.00 0.00 0.00 94 981.5
20260831115003 71 273 0.0 2.0 0.00 0.00 0.00 94 981.4
20260831114503 70 273 0.0 0.0 0.00 0.00 0.00 94 981.5
20260831114004 70 273 0.0 2.0 0.00 0.00 0.00 94 981.4
20260831113502 70 273 0.0 2.0 0.00 0.00 0.00 94 981.3
20260831113005 70 273 0.0 2.0 0.00 0.00 0.00 94 981.3
20260831112601 70 273 0.0 1.0 0.00 0.00 0.00 94 981.3
20260831112100 69 273 0.0 0.0 0.00 0.00 0.00 93 981.2
20260831111619 69 273 0.0 0.0 0.00 0.00 0.00 93 981.1
20260831111059 69 273 0.0 0.0 0.00 0.00 0.00 93 981.1
20260831110559 69 273 0.0 0.0 0.00 0.00 0.00 93 981.1
20260831110100 69 273 0.0 0.0 0.00 0.00 0.00 93 981.1
20260831105559 69 273 0.0 2.0 0.00 0.00 0.00 93 981.1
20260831105059 69 273 0.0 2.0 0.00 0.00 0.00 93 981.1
20260831104608 69 273 0.0 0.0 0.00 0.00 0.00 93 981.0
20260831104057 69 273 0.0 0.0 0.00 0.00 0.00 93 980.9
20260831103601 69 273 0.0 0.0 0.00 0.00 0.00 93 981.0
20260831103105 69 273 0.0 0.0 0.00 0.00 0.00 93 980.9
20260831102600 69 273 0.0 0.0 0.00 0.00 0.00 93 980.9
20260831102056 69 273 0.0 2.0 0.00 0.00 0.00 93 980.9
20260831101559 69 273 0.0 1.0 0.00 0.00 0.00 93 980.9
20260831101057 69 273 0.0 1.0 0.00 0.00 0.00 93 980.9
20260831100557 69 273 0.0 1.0 0.00 0.00 0.00 93 980.9
20260831100056 69 273 0.0 1.0 0.00 0.00 0.00 93 980.8
20260831095556 70 273 0.0 0.0 0.00 0.00 0.00 93 980.8
20260831095059 70 273 0.0 1.0 0.00 0.00 0.00 93 980.8
20260831094608 69 273 0.0 0.0 0.00 0.00 0.00 93 980.7
20260831094056 69 273 0.0 0.0 0.00 0.00 0.00 93 980.8
20260831093556 70 273 0.0 0.0 0.00 0.00 0.00 93 980.7
20260831093055 70 273 0.0 0.0 0.00 0.00 0.00 93 980.7
20260831092554 69 273 0.0 0.0 0.00 0.00 0.00 92 980.6
20260831092054 70 273 0.0 0.0 0.00 0.00 0.00 93 980.6
20260831091556 70 273 0.0 1.0 0.00 0.00 0.00 92 980.6
20260831091053 70 273 0.0 2.0 0.00 0.00 0.00 92 980.6
20260831090553 70 273 0.0 0.0 0.00 0.00 0.00 92 980.6
20260831090100 70 273 0.0 0.0 0.00 0.00 0.00 92 980.6
20260831085553 70 273 0.0 0.0 0.00 0.00 0.00 92 980.6
20260831085054 70 273 0.0 0.0 0.00 0.00 0.00 92 980.6
20260831084553 70 273 0.0 1.0 0.00 0.00 0.00 92 980.5
20260831084052 70 273 0.0 1.0 0.00 0.00 0.00 92 980.5
20260831083552 70 273 0.0 0.0 0.00 0.00 0.00 92 980.6
20260831083100 70 273 0.0 0.0 0.00 0.00 0.00 92 980.6
20260831082551 70 273 0.0 0.0 0.00 0.00 0.00 92 980.5
20260831082051 70 273 0.0 0.0 0.00 0.00 0.00 92 980.5
20260831081559 70 273 0.0 1.0 0.00 0.00 0.00 92 980.5
20260831081050 70 273 0.0 1.0 0.00 0.00 0.00 92 980.5
20260831080550 70 273 0.0 2.0 0.00 0.00 0.00 92 980.5
20260831080052 70 273 0.0 2.0 0.00 0.00 0.00 92 980.5
20260831075551 70 273 0.0 2.0 0.00 0.00 0.00 92 980.5
20260831075050 70 273 0.0 1.0 0.00 0.00 0.00 92 980.5
20260831074550 70 273 0.0 1.0 0.00 0.00 0.00 92 980.5
20260831074050 70 273 0.0 0.0 0.00 0.00 0.00 92 980.5
20260831073553 71 273 0.0 0.0 0.00 0.00 0.00 91 980.5
20260831073056 71 273 0.0 0.0 0.00 0.00 0.00 91 980.6
20260831072548 71 273 0.0 0.0 0.00 0.00 0.00 91 980.6
20260831072048 71 273 0.0 0.0 0.00 0.00 0.00 91 980.6
20260831071550 71 273 0.0 0.0 0.00 0.00 0.00 91 980.6
20260831071051 71 273 0.0 0.0 0.00 0.00 0.00 91 980.5
20260831070549 71 273 0.0 0.0 0.00 0.00 0.00 91 980.4
20260831070052 71 273 0.0 0.0 0.00 0.00 0.00 91 980.4
20260831065547 71 273 0.0 0.0 0.00 0.00 0.00 91 980.4
20260831065047 71 273 0.0 1.0 0.00 0.00 0.00 91 980.5
20260831064548 71 273 0.0 1.0 0.00 0.00 0.00 91 980.4
20260831064047 71 273 0.0 1.0 0.00 0.00 0.00 91 980.3
20260831063547 71 273 0.0 1.0 0.00 0.00 0.00 91 980.5
20260831063046 71 273 0.0 1.0 0.00 0.00 0.00 91 980.4
20260831062546 71 273 0.0 1.0 0.00 0.00 0.00 91 980.5
20260831062046 71 273 0.0 2.0 0.00 0.00 0.00 91 980.5
20260831061550 71 273 0.0 1.0 0.00 0.00 0.00 92 980.4
20260831061044 71 273 0.0 1.0 0.00 0.00 0.00 92 980.5
20260831060543 71 273 0.0 3.0 0.00 0.00 0.00 92 980.5
20260831060045 71 273 0.0 3.0 0.00 0.00 0.00 92 980.6
20260831055542 70 9 0.0 0.0 0.00 0.00 0.00 92 980.7
20260831055042 70 9 0.0 0.0 0.00 0.00 0.00 92 980.7
20260831054542 70 9 0.0 2.0 0.00 0.00 0.00 92 980.8
20260831054042 70 9 0.0 2.0 0.00 0.00 0.00 92 980.8
20260831053542 70 9 0.0 0.0 0.00 0.00 0.00 92 980.8
20260831053041 70 9 0.0 0.0 0.00 0.00 0.00 91 980.8
20260831052542 70 9 0.0 0.0 0.00 0.00 0.00 91 980.8
20260831052040 70 9 0.0 0.0 0.00 0.00 0.00 91 980.8
20260831051539 70 9 0.0 0.0 0.00 0.00 0.00 91 980.9
20260831051038 71 9 0.0 0.0 0.00 0.00 0.00 91 981.0
20260831050538 71 9 0.0 0.0 0.00 0.00 0.00 91 981.1
20260831050056 71 9 0.0 0.0 0.00 0.00 0.00 91 981.1
20260831045538 71 9 0.0 0.0 0.00 0.00 0.00 91 981.1
20260831045038 71 9 0.0 0.0 0.00 0.00 0.00 91 981.1
20260831044551 71 9 0.0 0.0 0.00 0.00 0.00 91 981.0
20260831044037 71 9 0.0 0.0 0.00 0.00 0.00 91 981.1
20260831043536 71 9 0.0 0.0 0.00 0.00 0.00 91 981.1
20260831043036 71 9 0.0 0.0 0.00 0.00 0.00 90 981.1
20260831042539 71 9 0.0 0.0 0.00 0.00 0.00 90 981.1
20260831042035 71 9 0.0 0.0 0.00 0.00 0.00 90 981.1
20260831041535 71 9 0.0 0.0 0.00 0.00 0.00 90 981.1
20260831041034 71 9 0.0 0.0 0.00 0.00 0.00 90 981.1
20260831040534 71 9 0.0 0.0 0.00 0.00 0.00 90 981.1
20260831040032 72 9 0.0 0.0 0.00 0.00 0.00 90 981.2
20260831035534 72 9 0.0 0.0 0.00 0.00 0.00 90 981.2
20260831035031 72 9 0.0 0.0 0.00 0.00 0.00 90 981.2
20260831034531 72 9 0.0 0.0 0.00 0.00 0.00 89 981.3
20260831034031 72 9 0.0 0.0 0.00 0.00 0.00 89 981.3
20260831033531 72 9 0.0 0.0 0.00 0.00 0.00 89 981.3
20260831033031 72 9 0.0 0.0 0.00 0.00 0.00 89 981.4
20260831032535 72 9 0.0 0.0 0.00 0.00 0.00 89 981.3
20260831032030 72 9 0.0 0.0 0.00 0.00 0.00 89 981.3
20260831031530 72 9 0.0 0.0 0.00 0.00 0.00 88 981.3
20260831031030 73 9 0.0 0.0 0.00 0.00 0.00 88 981.2
20260831030533 73 9 0.0 0.0 0.00 0.00 0.00 88 981.3
20260831030030 73 9 0.0 0.0 0.00 0.00 0.00 88 981.3
20260831025530 73 9 0.0 0.0 0.00 0.00 0.00 88 981.2
20260831025033 73 9 0.0 0.0 0.00 0.00 0.00 88 981.2
20260831024542 73 9 0.0 0.0 0.00 0.00 0.00 88 981.2
20260831024029 73 9 0.0 0.0 0.00 0.00 0.00 87 981.2
20260831023530 73 9 0.0 0.0 0.00 0.00 0.00 87 981.2
20260831023002 74 9 0.0 0.0 0.00 0.00 0.00 87 981.3
20260831022502 74 9 0.0 0.0 0.00 0.00 0.00 87 981.3
20260831022002 74 9 0.0 0.0 0.00 0.00 0.00 87 981.3
20260831021502 74 9 0.0 0.0 0.00 0.00 0.00 86 981.3
20260831021002 74 9 0.0 0.0 0.00 0.00 0.00 86 981.3
20260831020502 74 9 0.0 0.0 0.00 0.00 0.00 86 981.3
20260831020002 74 9 0.0 0.0 0.00 0.00 0.00 86 981.3
20260831015502 75 9 0.0 0.0 0.00 0.00 0.00 86 981.2
20260831015003 75 9 0.0 0.0 0.00 0.00 0.00 86 981.2
20260831014503 75 9 0.0 0.0 0.00 0.00 0.00 85 981.1
20260831014002 75 9 0.0 0.0 0.00 0.00 0.00 85 981.1
20260831013501 75 9 0.0 0.0 0.00 0.00 0.00 85 981.1
20260831013104 75 9 0.0 0.0 0.00 0.00 0.00 85 981.0
20260831012601 76 9 0.0 0.0 0.00 0.00 0.00 85 981.0
20260831012101 76 9 0.0 0.0 0.00 0.00 0.00 85 981.0
20260831011612 76 9 0.0 0.0 0.00 0.00 0.00 85 980.8
20260831011059 76 9 0.0 0.0 0.00 0.00 0.00 85 980.7
20260831010559 76 9 0.0 0.0 0.00 0.00 0.00 84 980.7
20260831010100 76 9 0.0 0.0 0.00 0.00 0.00 84 980.6
20260831005600 77 9 0.0 0.0 0.00 0.00 0.00 84 980.5
20260831005102 77 9 0.0 0.0 0.00 0.00 0.00 84 980.5
20260831004600 77 9 0.0 1.0 0.00 0.00 0.00 84 980.4
20260831004059 77 9 0.0 1.0 0.00 0.00 0.00 83 980.3
20260831003558 78 9 0.0 0.0 0.00 0.00 0.00 83 980.3
20260831003101 78 9 0.0 2.0 0.00 0.00 0.00 83 980.3
20260831002558 78 9 0.0 0.0 0.00 0.00 0.00 82 980.3
20260831002058 79 9 0.0 0.0 0.00 0.00 0.00 81 980.2
20260831001601 79 9 0.0 0.0 0.00 0.00 0.00 81 980.1
20260831001058 79 9 0.0 0.0 0.00 0.00 0.00 80 980.2
20260831000558 80 9 0.0 0.0 0.00 0.00 0.00 80 980.2
20260831000058 80 9 0.0 2.0 0.00 0.00 0.00 79 980.2
20260830235558 80 9 0.0 2.0 0.00 0.00 0.00 79 980.1
20260830235100 81 9 0.0 0.0 0.00 0.00 0.00 78 980.2
20260830234611 81 9 0.0 0.0 0.00 0.00 0.00 76 980.1
20260830234057 82 9 0.0 0.0 0.00 0.00 0.00 76 980.1
20260830233557 82 9 0.0 1.0 0.00 0.00 0.00 76 980.0
20260830233056 82 9 0.0 0.0 0.00 0.00 0.00 75 980.0
20260830232557 83 9 0.0 1.0 0.00 0.00 0.00 75 980.1
20260830232057 83 9 0.0 4.0 0.00 0.00 0.00 75 980.1